Fremont, MI

9:21 AM EST on November 13, 2019 (GMT -0500)
Fremont

Weather History for KFFX - May, 2019

Change the Weather History Date:

Wednesday, May 1, 2019

  Actual Average (KMKG) Record (KMKG)
Temperature  
Mean Temperature 47 °F -  
Max Temperature 53 °F 60 °F 85 °F (1951)
Min Temperature 41 °F 41 °F 27 °F (1945)
Degree Days  
Heating Degree Days 18    
Moisture  
Dew Point 46 °F    
Average Humidity 94    
Maximum Humidity 100    
Minimum Humidity 80    
Precipitation  
Precipitation 0.00 in - - ()
Sea Level Pressure  
Sea Level Pressure 29.95 in    
Wind  
Wind Speed 10 mph (SSW)    
Max Wind Speed 15 mph    
Max Gust Speed 25 mph    
Visibility 9 miles    
Events Rain    
Averages and records for this station are not official NWS values.
T = Trace of Precipitation, MM = Missing Value Source: NWS Daily Summary

Daily Weather History Graph

Daily Weather History Graph

Search for Another Location

Airport or City:

Astronomy

May. 01, 2019 Rise Set
Actual Time 6:37 AM EDT 8:45 PM EDT
Civil Twilight 6:05 AM EDT 9:17 PM EDT
Nautical Twilight 5:27 AM EDT 9:55 PM EDT
Astronomical Twilight 4:45 AM EDT 10:38 PM EDT
Moon 5:30 AM EDT (5/1) 5:25 PM EDT (5/1)
Length of Visible Light 15h 11m
Length of Day
14h 08m
Waning Crescent, 11% of the Moon is Illuminated
May 1
Waning Crescent
May 4
New
May 11
First Quarter
May 18
Full
May 26
Last Quarter

Hourly Weather History & Observations

Time (EDT) Temp. Windchill Dew Point Humidity Pressure Visibility Wind Dir Wind Speed Gust Speed Precip Events Conditions
12:15 AM 41.9 °F 34.3 °F 41.2 °F 97% 30.15 in 4.0 mi East 15.0 mph 21.9 mph N/A Rain Light Rain
5:21 AM 44.1 °F 38.1 °F 43.3 °F 97% 29.97 in 10.0 mi East 11.5 mph 19.6 mph N/A Rain Light Rain
5:35 AM 43.9 °F 37.9 °F 43.2 °F 97% 29.96 in 10.0 mi East 11.5 mph 20.7 mph N/A Rain Light Rain
5:55 AM 44.1 °F 39.0 °F 43.3 °F 97% 29.95 in 10.0 mi East 9.2 mph 19.6 mph N/A Rain Light Rain
6:16 AM 44.2 °F 38.8 °F 43.7 °F 98% 29.95 in 7.0 mi ESE 10.4 mph 18.4 mph N/A Rain Rain
6:35 AM 44.1 °F 38.1 °F 43.7 °F 99% 29.93 in 7.0 mi East 11.5 mph 18.4 mph N/A Rain Light Rain
6:55 AM 44.2 °F 38.8 °F 43.9 °F 99% 29.92 in 10.0 mi East 10.4 mph 17.3 mph N/A Rain Rain
7:16 AM 44.2 °F 38.8 °F 43.7 °F 98% 29.91 in 10.0 mi East 10.4 mph 16.1 mph N/A Rain Light Rain
7:35 AM 44.6 °F 37.8 °F 43.9 °F 97% 29.88 in 10.0 mi East 15.0 mph 21.9 mph N/A Rain Light Rain
7:55 AM 44.6 °F 38.4 °F 43.9 °F 97% 29.88 in 10.0 mi ESE 12.7 mph 25.3 mph N/A Rain Light Rain
8:16 AM 44.6 °F 39.2 °F 44.1 °F 98% 29.88 in 10.0 mi ESE 10.4 mph 19.6 mph N/A Rain Rain
8:36 AM 45.0 °F 39.7 °F 44.6 °F 99% 29.89 in 7.0 mi ESE 10.4 mph - N/A Rain Rain
8:55 AM 45.1 °F 40.8 °F 44.8 °F 99% 29.88 in 7.0 mi East 8.1 mph - N/A Rain Rain
9:15 AM 45.3 °F 40.6 °F 45.0 °F 99% 29.86 in 4.0 mi East 9.2 mph - N/A Rain Rain
9:36 AM 45.7 °F 42.7 °F 45.5 °F 99% 29.85 in 7.0 mi East 5.8 mph - N/A Rain Rain
9:56 AM 45.9 °F 41.2 °F 45.7 °F 99% 29.85 in 7.0 mi East 9.2 mph - N/A   Drizzle
10:15 AM 46.0 °F 41.0 °F 45.9 °F 99% 29.84 in 3.0 mi ESE 10.4 mph - N/A Rain Rain
10:35 AM 46.4 °F 41.1 °F 46.4 °F 100% 29.83 in 3.0 mi ESE 11.5 mph 17.3 mph N/A Rain Light Rain
10:56 AM 46.8 °F - 46.6 °F 99% 29.83 in 5.0 mi ESE 5.8 mph - N/A Rain Rain
11:15 AM 47.1 °F - 46.9 °F 99% 29.83 in 5.0 mi East 6.9 mph - N/A   Drizzle
11:36 AM 47.3 °F - 47.3 °F 100% 29.84 in 10.0 mi ESE 5.8 mph - N/A   Overcast
11:55 AM 47.7 °F - 47.7 °F 100% 29.85 in 5.0 mi ESE 4.6 mph - N/A Rain Rain
12:15 PM 48.2 °F - 48.2 °F 100% 29.87 in 5.0 mi Calm Calm - N/A Rain Heavy Rain
12:36 PM 49.1 °F - 49.1 °F 100% 29.84 in 7.0 mi East 8.1 mph - N/A Rain Rain
12:55 PM 50.0 °F - 50.0 °F 100% 29.85 in 10.0 mi ESE 3.5 mph - N/A Rain Light Rain
1:16 PM 50.4 °F - 50.4 °F 100% 29.86 in 10.0 mi SSE 3.5 mph - N/A   Overcast
1:36 PM 51.3 °F - 51.3 °F 100% 29.88 in 10.0 mi SW 3.5 mph - N/A   Light Drizzle
1:55 PM 51.8 °F - 51.6 °F 99% 29.88 in 7.0 mi WSW 11.5 mph 17.3 mph N/A   Overcast
2:16 PM 50.5 °F - 49.8 °F 97% 29.89 in 10.0 mi WSW 13.8 mph - N/A   Overcast
2:36 PM 50.9 °F - 50.2 °F 97% 29.90 in 10.0 mi WSW 9.2 mph - N/A   Overcast
2:56 PM 51.8 °F - 50.2 °F 94% 29.92 in 10.0 mi WSW 12.7 mph - N/A   Overcast
3:15 PM 51.3 °F - 49.5 °F 94% 29.93 in 10.0 mi WSW 12.7 mph - N/A   Overcast
3:36 PM 50.9 °F - 48.9 °F 93% 29.94 in 10.0 mi WSW 11.5 mph - N/A   Overcast
3:56 PM 51.6 °F - 48.6 °F 89% 29.95 in 10.0 mi West 6.9 mph - N/A   Overcast
4:15 PM 51.6 °F - 48.0 °F 87% 29.96 in 10.0 mi West 10.4 mph - N/A   Overcast
4:35 PM 52.7 °F - 47.8 °F 84% 29.97 in 10.0 mi WNW 11.5 mph - N/A   Overcast
4:56 PM 53.1 °F - 47.8 °F 82% 29.98 in 10.0 mi WNW 6.9 mph - N/A   Overcast
5:15 PM 53.4 °F - 47.5 °F 80% 29.98 in 10.0 mi West 6.9 mph - N/A   Overcast
5:35 PM 53.2 °F - 47.8 °F 82% 29.99 in 10.0 mi West 4.6 mph - N/A   Overcast
5:56 PM 52.7 °F - 47.3 °F 82% 30.00 in 10.0 mi West 8.1 mph - N/A   Overcast
6:16 PM 52.2 °F - 47.1 °F 83% 30.01 in 10.0 mi WSW 6.9 mph - N/A   Overcast
6:35 PM 52.0 °F - 46.8 °F 82% 30.01 in 10.0 mi WSW 8.1 mph - N/A   Overcast
6:55 PM 50.9 °F - 46.2 °F 84% 30.02 in 10.0 mi WSW 9.2 mph - N/A   Overcast
7:16 PM 50.0 °F - 45.1 °F 83% 30.02 in 10.0 mi WSW 8.1 mph - N/A   Overcast
7:36 PM 48.6 °F - 45.3 °F 89% 30.03 in 10.0 mi West 6.9 mph - N/A   Overcast
7:55 PM 47.7 °F - 45.0 °F 90% 30.04 in 10.0 mi West 8.1 mph - N/A   Overcast
8:15 PM 46.9 °F - 44.6 °F 92% 30.05 in 10.0 mi West 6.9 mph - N/A   Overcast
8:36 PM 46.6 °F - 44.6 °F 93% 30.05 in 10.0 mi West 6.9 mph - N/A   Overcast
8:56 PM 46.6 °F - 44.2 °F 92% 30.07 in 10.0 mi West 8.1 mph - N/A   Overcast
9:16 PM 46.0 °F 43.1 °F 43.7 °F 92% 30.07 in 10.0 mi West 5.8 mph - N/A   Overcast
9:35 PM 45.5 °F 41.8 °F 43.2 °F 92% 30.08 in 10.0 mi WNW 6.9 mph - N/A   Overcast
9:55 PM 45.0 °F 41.8 °F 43.0 °F 93% 30.08 in 10.0 mi West 5.8 mph - N/A   Overcast
10:15 PM 44.8 °F 41.0 °F 43.0 °F 93% 30.08 in 10.0 mi West 6.9 mph - N/A   Overcast
10:36 PM 44.6 °F 42.2 °F 43.2 °F 95% 30.08 in 10.0 mi WNW 4.6 mph - N/A   Overcast
10:55 PM 44.6 °F 42.2 °F 43.3 °F 95% 30.08 in 10.0 mi NW 4.6 mph - N/A   Overcast
11:15 PM 44.6 °F 42.2 °F 43.0 °F 94% 30.09 in 10.0 mi NW 4.6 mph - N/A   Overcast
11:36 PM 44.2 °F - 43.0 °F 95% 30.08 in 10.0 mi Calm Calm - N/A   Overcast
11:55 PM 44.1 °F 41.5 °F 42.4 °F 94% 30.09 in 10.0 mi NNW 4.6 mph - N/A   Overcast